Location: Township of Marena
(38.1747°N, 99.6798°W)
Time: 11:59:59
(UTC+00:00)

COSMOS 2406 - Pass Details

Date: 26 October 2020
Orbit: 843 x 864 km, 71.0° (Epoch: 24 November)

Event Time Altitude Azimuth Distance (km) Brightness Sun altitude
Exits shadow 11:30:16 30° 257° (WSW) 1,480 3.9 -18.0°
Maximum altitude 11:32:13 39° 299° (WNW) 1,250 3.6 -17.6°
Drops below altitude 10° 11:37:30 10° 7° (N) 2,470 5.7 -16.6°
Sets 11:40:08 0° 16° (NNE) 3,410 6.5 -16.1°
